Flag for U.S.A. Weather past 2 weeks in Spokane, Washington, U.S.A.

Now
62 °F

Sunny.


Feels Like: 62 °F
Forecast: 61 / 98 °F
Wind: 3 mph from Northeast

Location: Felts Field

Current Time: Aug 1, 2014 at 7:44:09 AM

Latest Report: Aug 1, 2014 at 6:53 AM


Visibility: 10 mi

Pressure: 29.98 "Hg

Humidity: 60%

Dew point: 48 °F

Location of SpokaneLocation

Historic Weather in Spokane — Graph

°F

Spokane temperature yesterday

Maximum temperature yesterday: 101 °F (at 3:53 PM)
Minimum temperature yesterday: 63 °F (at 5:53 AM)
Average temperature yesterday: 82 °F

Past Weeks' High & Low Weather Summary

 TemperatureHumidityPressure
High101 °F (Jul 31, 3:53 PM)90% (Jul 22, 7:53 AM)30.14 "Hg (Jul 22, 7:53 AM)
Low51 °F (Jul 26, 4:53 AM)6% (Jul 31, 3:53 PM)29.67 "Hg (Jul 17, 7:53 PM)
Average75 °F39%29.95 "Hg
* Reported Jul 17 5:53 AM — Aug 1 5:53 AM, Spokane, Weather by CustomWeather, © 2014

Note: Actual official high and low records may vary slightly from our data, if they occured in-between our weather recording intervals... More about our weather records

Advertising

Spokane weather history for previous 24 hours

 ConditionsComfort  
Time TempWeatherWind HumidityBarometerVisibility
5:53 AM
Aug 1
61 °FClear.No wind54%29.98 "Hg10 mi
4:53 AM63 °FClear.No wind48%29.97 "Hg10 mi
3:53 AM66 °FClear.No wind42%29.95 "Hg10 mi
2:53 AM66 °FClear.3 mph39%29.95 "Hg10 mi
1:53 AM71 °FClear.5 mph30%29.95 "Hg10 mi
12:53 AM71 °FClear.3 mph28%29.94 "Hg10 mi
11:53 PM
Jul 31
71 °FClear.No wind30%29.94 "Hg10 mi
10:53 PM73 °FClear.No wind30%29.94 "Hg10 mi
9:53 PM78 °FClear.No wind22%29.93 "Hg10 mi
8:53 PM87 °FSunny.No wind16%29.91 "Hg10 mi
7:53 PM93 °FSunny.9 mph12%29.90 "Hg10 mi
6:53 PM96 °FSunny.15 mph8%29.90 "Hg10 mi
5:53 PM99 °FSunny.10 mph7%29.90 "Hg10 mi
4:53 PM99 °FSunny.9 mph6%29.90 "Hg10 mi
3:53 PM101 °FSunny.12 mph6%29.92 "Hg10 mi
2:53 PM100 °FSunny.12 mph7%29.94 "Hg10 mi
1:53 PM97 °FSunny.7 mph10%29.95 "Hg10 mi
12:53 PM96 °FSunny.5 mph10%29.97 "Hg10 mi
11:53 AM93 °FSunny.3 mph20%29.98 "Hg10 mi
10:53 AM89 °FSunny.No wind24%30.00 "Hg10 mi
9:53 AM84 °FSunny.3 mph31%30.00 "Hg10 mi
8:53 AM77 °FSunny.7 mph37%30.01 "Hg10 mi
7:53 AM72 °FSunny.No wind46%30.01 "Hg10 mi
Weather by CustomWeather, © 2014

See weather overviewHow to use our weather pages